Weather History for Grand Forks, ND

Change the Weather History Date:

Sunday, December 18, 2011

  Actual Average Record
Temperature  
Mean Temperature 36 °F 10 °F  
Max Temperature 51 °F 19 °F 51 °F (2011)
Min Temperature 20 °F 2 °F -28 °F (1955)
Degree Days  
Heating Degree Days 29 55  
Month to date heating degree days 795 928  
Since 1 July heating degree days 2488 3127  
Cooling Degree Days 0 0  
Month to date cooling degree days 0 0  
Year to date cooling degree days 538 379  
Moisture  
Dew Point 25 °F    
Average Humidity 69    
Maximum Humidity 91    
Minimum Humidity 46    
Precipitation  
Precipitation 0.00 in 0.02 in 0.25 in (1958)
Month to date precipitation 0.02 0.35  
Year to date precipitation 19.09 20.55  
Snow  
Snow 0.00 in 0.30 in 3.90 in (1992)
Month to date snowfall 0.2 6.0  
Since 1 July snowfall 1.4 15.2  
Snow Depth 0.00 in    
Sea Level Pressure  
Sea Level Pressure 29.74 in    
Wind  
Wind Speed 14 mph (West)    
Max Wind Speed 31 mph    
Max Gust Speed 37 mph    
Visibility 10 miles    
Events      
T = Trace of Precipitation, MM = Missing Value Source: NWS Daily Summary

Daily Weather History Graph

Daily Weather History Graph

Search for Another Location

Airport:

Trip Planner

Search our weather history database for the weather conditions in past years. The results will help you decide how hot, cold, wet, or windy it might be!

Date:

Astronomy

Dec. 18, 2011 Rise Set
Actual Time 8:13 AM CST 4:36 PM CST
Civil Twilight 7:37 AM CST 5:13 PM CST
Nautical Twilight 6:57 AM CST 5:52 PM CST
Astronomical Twilight 6:19 AM CST 6:30 PM CST
Moon 12:52 AM CST (12/18) 12:23 PM CST (12/18)
Length of Visible Light 9h 35m
Length of Day
8h 23m
Last Quarter, 42% of the Moon is Illuminated
Dec 18
Last Quarter
Dec 24
New
Jan 1
First Quarter
Jan 9
Full
Jan 16
Last Quarter

Hourly Weather History & Observations

Time (CST) Temp. Windchill Dew Point Humidity Pressure Visibility Wind Dir Wind Speed Gust Speed Precip Events Conditions
12:53 AM 21.9 °F 11.7 °F 18.0 °F 85% 29.90 in 10.0 mi SSE 9.2 mph - N/A   Scattered Clouds
1:53 AM 19.9 °F 9.3 °F 17.1 °F 89% 29.86 in 10.0 mi SSE 9.2 mph - N/A   Partly Cloudy
2:53 AM 23.0 °F 12.4 °F 19.0 °F 85% 29.83 in 10.0 mi South 10.4 mph - N/A   Clear
3:53 AM 21.9 °F 11.7 °F 18.0 °F 85% 29.79 in 10.0 mi South 9.2 mph - N/A   Clear
4:53 AM 23.0 °F 13.1 °F 19.9 °F 88% 29.77 in 10.0 mi South 9.2 mph - N/A   Clear
5:53 AM 23.0 °F 12.4 °F 19.0 °F 85% 29.74 in 10.0 mi South 10.4 mph - N/A   Clear
6:53 AM 24.1 °F 12.0 °F 19.9 °F 84% 29.73 in 10.0 mi South 13.8 mph - N/A   Mostly Cloudy
7:53 AM 25.0 °F 14.8 °F 21.0 °F 85% 29.70 in 10.0 mi South 10.4 mph - N/A   Mostly Cloudy
8:53 AM 27.0 °F 16.1 °F 21.9 °F 81% 29.67 in 10.0 mi South 12.7 mph - N/A   Mostly Cloudy
9:53 AM 30.0 °F 20.5 °F 25.0 °F 82% 29.64 in 10.0 mi South 11.5 mph - N/A   Mostly Cloudy
10:53 AM 35.1 °F 28.6 °F 27.0 °F 72% 29.63 in 10.0 mi SSW 8.1 mph - N/A   Mostly Cloudy
11:53 AM 41.0 °F 38.0 °F 28.4 °F 61% 29.57 in 10.0 mi South 4.6 mph - N/A   Mostly Cloudy
12:53 PM 50.0 °F - 30.9 °F 48% 29.56 in 10.0 mi West 17.3 mph 20.7 mph N/A   Mostly Cloudy
1:53 PM 50.0 °F - 30.2 °F 47% 29.52 in 10.0 mi WNW 16.1 mph - N/A   Mostly Cloudy
2:53 PM 50.0 °F - 30.0 °F 46% 29.55 in 10.0 mi WNW 17.3 mph - N/A   Mostly Cloudy
3:53 PM 46.0 °F 39.6 °F 30.0 °F 54% 29.59 in 10.0 mi NW 15.0 mph - N/A   Mostly Cloudy
4:53 PM 39.9 °F 32.9 °F 30.0 °F 68% 29.63 in 10.0 mi NW 11.5 mph - N/A   Mostly Cloudy
5:53 PM 36.0 °F 26.7 °F 28.0 °F 73% 29.70 in 10.0 mi North 15.0 mph 23.0 mph N/A   Overcast
6:03 PM 35.6 °F 24.5 °F 28.4 °F 75% 29.67 in 10.0 mi NNW 20.7 mph 26.5 mph N/A   Mostly Cloudy
6:51 PM 33.8 °F 21.9 °F 28.4 °F 81% 29.71 in 10.0 mi NNW 21.9 mph 28.8 mph N/A   Overcast
6:53 PM 34.0 °F 21.8 °F 28.9 °F 82% 29.75 in 10.0 mi North 23.0 mph 29.9 mph N/A   Overcast
7:53 PM 33.1 °F 21.5 °F 28.0 °F 82% 29.80 in 10.0 mi North 19.6 mph 27.6 mph N/A   Overcast
8:16 PM 33.8 °F 21.3 °F 26.6 °F 75% 29.79 in 10.0 mi North 24.2 mph 29.9 mph N/A   Overcast
8:53 PM 30.9 °F 18.1 °F 25.0 °F 79% 29.86 in 10.0 mi North 21.9 mph 35.7 mph N/A   Mostly Cloudy
9:09 PM 30.2 °F 17.8 °F 24.8 °F 80% 29.82 in 10.0 mi North 19.6 mph 27.6 mph N/A   Overcast
9:53 PM 30.0 °F 18.7 °F 23.0 °F 75% 29.90 in 10.0 mi North 16.1 mph 31.1 mph N/A   Overcast
10:53 PM 28.9 °F 17.3 °F 23.0 °F 78% 29.95 in 10.0 mi NNW 16.1 mph - N/A   Overcast
11:53 PM 28.9 °F 16.5 °F 21.9 °F 75% 29.98 in 10.0 mi North 18.4 mph 27.6 mph N/A   Overcast